Home   Weather   Sandpoint   Past weeks

Flag for USA Past Weather in Sandpoint, Idaho, USA — Yesterday and Last 2 Weeks

Now
21 °F

Overcast.


Feels Like: 11 °F
Forecast: 5 / 17 °F
Wind: 9 mph from Northeast

Location: Sandpoint Airport

Current Time: Dec 7, 2016 at 12:44:30 am

Latest Report: Dec 6, 2016 at 11:55 pm


Visibility: 10 mi

Pressure: 30.28 "Hg (27.91 "Hg at 636m altitude)

Humidity: 63%

Dew Point: 10 °F

Location of SandpointLocation

Past Weather in Sandpoint — Graph

°F

Sandpoint Temperature Yesterday

Maximum temperature yesterday: 30 °F (at 11:55 am)
Minimum temperature yesterday: 21 °F (at 6:35 am)
Average temperature yesterday: 25 °F

High & Low Weather Summary for the Past Weeks

 TemperatureHumidityPressure
High50 °F (Nov 26, 1:15 pm)100% (Nov 23, 8:55 am)30.32 "Hg (Nov 23, 8:55 am)
Low21 °F (Dec 5, 6:55 am)43% (Dec 6, 12:15 pm)29.48 "Hg (Nov 27, 11:15 pm)
Average34 °F89%29.95 "Hg
* Reported Nov 23 8:55 am — Dec 6 11:15 pm, Sandpoint, Weather by CustomWeather, © 2016

Note: Actual official high and low records may vary slightly from our data, if they occured in-between our weather recording intervals... More about our weather records

Advertising

Sandpoint Weather History for the Previous 24 Hours

Scroll right to see more
 ConditionsComfort  
Time TempWeatherWind HumidityBarometerVisibility
11:15 pm
Tue, Dec 6
21 °FOvercast.8 mph68%30.26 "Hg10 mi
10:55 pm21 °FPassing clouds.8 mph68%30.25 "Hg10 mi
10:35 pm21 °FPassing clouds.8 mph68%30.24 "Hg10 mi
10:15 pm21 °FPassing clouds.7 mph68%30.23 "Hg10 mi
9:55 pm21 °FOvercast.8 mph68%30.22 "Hg10 mi
9:35 pm21 °FPassing clouds.6 mph63%30.21 "Hg10 mi
9:15 pm21 °FClear.6 mph63%30.21 "Hg10 mi
8:55 pm23 °FPassing clouds.5 mph58%30.20 "Hg10 mi
8:35 pm23 °FPassing clouds.5 mph58%30.19 "Hg10 mi
8:15 pm21 °FPassing clouds.6 mph68%30.18 "Hg10 mi
7:55 pm23 °FPassing clouds.6 mph63%30.17 "Hg10 mi
7:15 pm23 °FPassing clouds.8 mph63%30.16 "Hg10 mi
6:55 pm23 °FClear.8 mph63%30.15 "Hg10 mi
6:15 pm23 °FPassing clouds.5 mph63%30.14 "Hg10 mi
5:55 pm23 °FPassing clouds.3 mph63%30.14 "Hg10 mi
5:15 pm25 °FClear.3 mph59%30.13 "Hg10 mi
4:55 pm25 °FClear.5 mph59%30.12 "Hg10 mi
4:35 pm27 °FClear.5 mph54%30.11 "Hg10 mi
4:15 pm27 °FClear.6 mph50%30.11 "Hg10 mi
3:55 pm27 °FClear.7 mph54%30.10 "Hg10 mi
3:35 pm28 °FSunny.9 mph51%30.09 "Hg10 mi
3:15 pm28 °FSunny.8 mph51%30.08 "Hg10 mi
2:55 pm28 °FSunny.12 mph51%30.07 "Hg10 mi
2:35 pm30 °FSunny.10 mph43%30.06 "Hg10 mi
2:15 pm30 °FSunny.12 mph43%30.06 "Hg10 mi
1:55 pm30 °FSunny.15 mph43%30.05 "Hg10 mi
1:35 pm30 °FSunny.13 mph43%30.05 "Hg10 mi
12:55 pm30 °FSunny.15 mph43%30.04 "Hg10 mi
12:35 pm30 °FSunny.16 mph43%30.04 "Hg10 mi
12:15 pm30 °FSunny.15 mph43%30.04 "Hg10 mi
11:55 am30 °FSunny.16 mph47%30.04 "Hg10 mi
11:35 am28 °FSunny.16 mph51%30.04 "Hg10 mi
11:15 am28 °FSunny.17 mph51%30.05 "Hg10 mi
9:55 am27 °FSunny.16 mph54%30.05 "Hg10 mi
9:35 am27 °FSunny.14 mph54%30.04 "Hg10 mi
9:15 am25 °FSunny.13 mph63%30.04 "Hg10 mi
8:55 am23 °FSunny.15 mph63%30.04 "Hg10 mi
8:35 am23 °FSunny.15 mph63%30.04 "Hg10 mi
8:15 am23 °FSunny.16 mph63%30.03 "Hg10 mi
7:55 am23 °FSunny.14 mph63%30.03 "Hg10 mi
7:35 am23 °FSunny.13 mph63%30.02 "Hg10 mi
7:15 am23 °FClear.10 mph63%30.02 "Hg10 mi
6:55 am23 °FClear.13 mph63%30.02 "Hg10 mi
6:35 am21 °FClear.12 mph68%30.02 "Hg10 mi
6:15 am23 °FClear.12 mph63%30.02 "Hg10 mi
5:55 am23 °FClear.14 mph63%30.01 "Hg10 mi
5:35 am23 °FClear.16 mph63%30.01 "Hg10 mi
5:15 am23 °FClear.14 mph68%30.01 "Hg10 mi
4:55 am23 °FClear.14 mph68%30.01 "Hg10 mi
4:35 am23 °FClear.14 mph68%30.01 "Hg10 mi
4:15 am23 °FClear.16 mph68%30.01 "Hg10 mi
3:55 am23 °FClear.16 mph68%30.00 "Hg10 mi
3:35 am23 °FClear.16 mph68%30.00 "Hg10 mi
3:15 am23 °FClear.16 mph68%30.00 "Hg10 mi
2:55 am23 °FClear.15 mph68%30.00 "Hg10 mi
2:35 am23 °FClear.14 mph68%30.00 "Hg10 mi
2:15 am23 °FClear.13 mph68%30.01 "Hg10 mi
1:55 am23 °FClear.12 mph68%30.00 "Hg10 mi
1:35 am23 °FClear.12 mph68%30.00 "Hg10 mi
1:15 am23 °FClear.12 mph68%30.00 "Hg10 mi
12:55 am25 °FClear.13 mph63%30.00 "Hg10 mi
12:35 am25 °FClear.12 mph63%30.01 "Hg10 mi
12:15 am25 °FClear.10 mph69%30.01 "Hg10 mi
Weather by CustomWeather, © 2016

See weather overviewHow to use our weather pages